owner,sensor,date,latitude,longitude,vertical_datum,sea_water_practical_salinity,qcFlag 
DISL,ioos:station:DISL:MHPA:1,2011-01-01T00:00:00Z,30.6671,-87.9365,1.5,6.5,11111222 
DISL,ioos:station:DISL:MHPA:1,2011-01-01T00:30:00Z,30.6671,-87.9365,1.5,6.6,11111222 
DISL,ioos:station:DISL:MHPA:1,2011-01-01T01:00:00Z,30.6671,-87.9365,1.5,6.6,11111222 
DISL,ioos:station:DISL:MHPA:1,2011-01-01T01:30:00Z,30.6671,-87.9365,1.5,6.6,11111222 
DISL,ioos:station:DISL:MHPA:1,2011-01-01T02:00:00Z,30.6671,-87.9365,1.5,6.7,11111222 
DISL,ioos:station:DISL:MHPA:1,2011-01-01T02:30:00Z,30.6671,-87.9365,1.6,6.7,11111222 
DISL,ioos:station:DISL:MHPA:1,2011-01-01T03:00:00Z,30.6671,-87.9365,1.6,6.7,11111222 
DISL,ioos:station:DISL:MHPA:1,2011-01-01T03:30:00Z,30.6671,-87.9365,1.6,6.7,11111222 
DISL,ioos:station:DISL:MHPA:1,2011-01-01T04:00:00Z,30.6671,-87.9365,1.6,6.7,11111222 
DISL,ioos:station:DISL:MHPA:1,2011-01-01T04:30:00Z,30.6671,-87.9365,1.6,6.7,11111222 
DISL,ioos:station:DISL:MHPA:1,2011-01-01T05:00:00Z,30.6671,-87.9365,1.6,6.7,11111222 
DISL,ioos:station:DISL:MHPA:1,2011-01-01T06:30:00Z,30.6671,-87.9365,4.808,6.55,1111122 
DISL,ioos:station:DISL:MHPA:1,2011-01-01T07:00:00Z,30.6671,-87.9365,4.751,6.43,1111122 
DISL,ioos:station:DISL:MHPA:1,2011-01-01T07:30:00Z,30.6671,-87.9365,4.641,6.6,1111122 
DISL,ioos:station:DISL:MHPA:1,2011-01-01T08:00:00Z,30.6671,-87.9365,4.514,6.56,1111122 
DISL,ioos:station:DISL:MHPA:1,2011-01-01T08:30:00Z,30.6671,-87.9365,4.353,6.58,1111122 
DISL,ioos:station:DISL:MHPA:1,2011-01-01T09:00:00Z,30.6671,-87.9365,4.173,6.59,1111122 
DISL,ioos:station:DISL:MHPA:1,2011-01-01T09:30:00Z,30.6671,-87.9365,4.047,6.62,1111122 
DISL,ioos:station:DISL:MHPA:1,2011-01-01T10:00:00Z,30.6671,-87.9365,3.909,6.6,1111122 
DISL,ioos:station:DISL:MHPA:1,2011-01-01T10:30:00Z,30.6671,-87.9365,3.807,6.63,1111122 
DISL,ioos:station:DISL:MHPA:1,2011-01-01T11:00:00Z,30.6671,-87.9365,3.698,6.62,1111122 
DISL,ioos:station:DISL:MHPA:1,2011-01-01T11:30:00Z,30.6671,-87.9365,3.556,6.61,1111122 
DISL,ioos:station:DISL:MHPA:1,2011-01-01T12:00:00Z,30.6671,-87.9365,3.489,6.64,1111122 
DISL,ioos:station:DISL:MHPA:1,2011-01-01T12:30:00Z,30.6671,-87.9365,3.387,6.6,1111122 
DISL,ioos:station:DISL:MHPA:1,2011-01-01T13:00:00Z,30.6671,-87.9365,3.297,6.6,1111122 
DISL,ioos:station:DISL:MHPA:1,2011-01-01T13:30:00Z,30.6671,-87.9365,3.255,6.58,1111122 
DISL,ioos:station:DISL:MHPA:1,2011-01-01T14:00:00Z,30.6671,-87.9365,3.2,6.56,1111122 
DISL,ioos:station:DISL:MHPA:1,2011-01-01T14:30:00Z,30.6671,-87.9365,3.173,6.59,1111122 
DISL,ioos:station:DISL:MHPA:1,2011-01-01T15:00:00Z,30.6671,-87.9365,3.113,6.57,1111122 
DISL,ioos:station:DISL:MHPA:1,2011-01-01T15:30:00Z,30.6671,-87.9365,3.021,6.54,1111122 
DISL,ioos:station:DISL:MHPA:1,2011-01-01T16:00:00Z,30.6671,-87.9365,3.016,6.51,1111122 
DISL,ioos:station:DISL:MHPA:1,2011-01-01T16:30:00Z,30.6671,-87.9365,3.157,6.52,1111122 
DISL,ioos:station:DISL:MHPA:1,2011-01-01T17:00:00Z,30.6671,-87.9365,3.252,6.5,1111122 
DISL,ioos:station:DISL:MHPA:1,2011-01-01T17:30:00Z,30.6671,-87.9365,3.225,6.52,1111122 
DISL,ioos:station:DISL:MHPA:1,2011-01-01T18:00:00Z,30.6671,-87.9365,3.236,6.53,1111122 
DISL,ioos:station:DISL:MHPA:1,2011-01-01T18:30:00Z,30.6671,-87.9365,3.464,6.6,1111122 
DISL,ioos:station:DISL:MHPA:1,2011-01-01T19:00:00Z,30.6671,-87.9365,3.539,6.67,1111122 
DISL,ioos:station:DISL:MHPA:1,2011-01-01T19:30:00Z,30.6671,-87.9365,3.596,6.73,1111122 
DISL,ioos:station:DISL:MHPA:1,2011-01-01T20:00:00Z,30.6671,-87.9365,3.616,6.79,1111122 
DISL,ioos:station:DISL:MHPA:1,2011-01-01T20:30:00Z,30.6671,-87.9365,3.761,6.86,1111122 
DISL,ioos:station:DISL:MHPA:1,2011-01-01T21:00:00Z,30.6671,-87.9365,3.76,6.74,1111122 
DISL,ioos:station:DISL:MHPA:1,2011-01-01T21:30:00Z,30.6671,-87.9365,3.646,6.81,1111122 
DISL,ioos:station:DISL:MHPA:1,2011-01-01T22:00:00Z,30.6671,-87.9365,3.678,6.97,1111122 
DISL,ioos:station:DISL:MHPA:1,2011-01-01T22:30:00Z,30.6671,-87.9365,3.764,7.17,1111122 
DISL,ioos:station:DISL:MHPA:1,2011-01-01T23:00:00Z,30.6671,-87.9365,3.867,7.18,1111122 
DISL,ioos:station:DISL:MHPA:1,2011-01-01T23:30:00Z,30.6671,-87.9365,3.814,7.23,1111122 
DISL,ioos:station:DISL:MHPA:1,2011-01-02T00:00:00Z,30.6671,-87.9365,3.859,7.37,1111122 
DISL,ioos:station:DISL:MHPA:1,2011-01-02T00:30:00Z,30.6671,-87.9365,3.904,7.19,1111122 
DISL,ioos:station:DISL:MHPA:1,2011-01-02T01:00:00Z,30.6671,-87.9365,3.864,7.31,1111122 
DISL,ioos:station:DISL:MHPA:1,2011-01-02T01:30:00Z,30.6671,-87.9365,3.865,7.33,1111122 
DISL,ioos:station:DISL:MHPA:1,2011-01-02T02:00:00Z,30.6671,-87.9365,3.866,7.32,1111122 
DISL,ioos:station:DISL:MHPA:1,2011-01-02T02:30:00Z,30.6671,-87.9365,3.77,7.29,1111122 
DISL,ioos:station:DISL:MHPA:1,2011-01-02T03:00:00Z,30.6671,-87.9365,3.661,7.43,1111122 
DISL,ioos:station:DISL:MHPA:1,2011-01-02T03:30:00Z,30.6671,-87.9365,3.772,7.49,1111122 
DISL,ioos:station:DISL:MHPA:1,2011-01-02T04:00:00Z,30.6671,-87.9365,3.592,7.45,1111122 
DISL,ioos:station:DISL:MHPA:1,2011-01-02T04:30:00Z,30.6671,-87.9365,3.575,7.6,1111122 
DISL,ioos:station:DISL:MHPA:1,2011-01-02T05:00:00Z,30.6671,-87.9365,3.55,7.59,1111122 
DISL,ioos:station:DISL:MHPA:1,2011-01-02T05:30:00Z,30.6671,-87.9365,3.494,7.6,1111122 
DISL,ioos:station:DISL:MHPA:1,2011-01-02T06:00:00Z,30.6671,-87.9365,3.396,7.69,1111122 
DISL,ioos:station:DISL:MHPA:1,2011-01-02T06:30:00Z,30.6671,-87.9365,3.364,7.61,1111122 
DISL,ioos:station:DISL:MHPA:1,2011-01-02T07:00:00Z,30.6671,-87.9365,3.2,7.67,1111122 
DISL,ioos:station:DISL:MHPA:1,2011-01-02T07:30:00Z,30.6671,-87.9365,2.995,7.65,1111122 
DISL,ioos:station:DISL:MHPA:1,2011-01-02T08:00:00Z,30.6671,-87.9365,2.832,7.67,1111122 
DISL,ioos:station:DISL:MHPA:1,2011-01-02T08:30:00Z,30.6671,-87.9365,2.705,7.41,1111122 
DISL,ioos:station:DISL:MHPA:1,2011-01-02T09:00:00Z,30.6671,-87.9365,2.586,7.39,1111122 
DISL,ioos:station:DISL:MHPA:1,2011-01-02T09:30:00Z,30.6671,-87.9365,2.457,7.32,1111122 
DISL,ioos:station:DISL:MHPA:1,2011-01-02T10:00:00Z,30.6671,-87.9365,2.328,7.33,1111122 
DISL,ioos:station:DISL:MHPA:1,2011-01-02T10:30:00Z,30.6671,-87.9365,2.229,7.41,1111122 
DISL,ioos:station:DISL:MHPA:1,2011-01-02T11:00:00Z,30.6671,-87.9365,2.15,7.21,1111122 
DISL,ioos:station:DISL:MHPA:1,2011-01-02T11:30:00Z,30.6671,-87.9365,2.051,7.38,1111122 
DISL,ioos:station:DISL:MHPA:1,2011-01-02T12:00:00Z,30.6671,-87.9365,1.935,7.42,1111122 
DISL,ioos:station:DISL:MHPA:1,2011-01-02T12:30:00Z,30.6671,-87.9365,1.836,7.47,1111122 
DISL,ioos:station:DISL:MHPA:1,2011-01-02T13:00:00Z,30.6671,-87.9365,1.742,7.3,1111122 
DISL,ioos:station:DISL:MHPA:1,2011-01-02T13:30:00Z,30.6671,-87.9365,1.651,7.42,1111122 
DISL,ioos:station:DISL:MHPA:1,2011-01-02T14:00:00Z,30.6671,-87.9365,1.57,7.48,1111122 
DISL,ioos:station:DISL:MHPA:1,2011-01-02T14:30:00Z,30.6671,-87.9365,1.503,7.42,1111122 
DISL,ioos:station:DISL:MHPA:1,2011-01-02T15:00:00Z,30.6671,-87.9365,1.449,7.3,1111122 
DISL,ioos:station:DISL:MHPA:1,2011-01-02T15:30:00Z,30.6671,-87.9365,1.408,7.23,1111122 
DISL,ioos:station:DISL:MHPA:1,2011-01-02T16:00:00Z,30.6671,-87.9365,1.375,7.19,1111122 
DISL,ioos:station:DISL:MHPA:1,2011-01-02T16:30:00Z,30.6671,-87.9365,1.348,7.25,1111122 
DISL,ioos:station:DISL:MHPA:1,2011-01-02T17:00:00Z,30.6671,-87.9365,1.322,7.35,1111122 
DISL,ioos:station:DISL:MHPA:1,2011-01-02T17:30:00Z,30.6671,-87.9365,1.307,7.36,1111122 
DISL,ioos:station:DISL:MHPA:1,2011-01-02T18:00:00Z,30.6671,-87.9365,1.289,7.39,1111122 
DISL,ioos:station:DISL:MHPA:1,2011-01-02T18:30:00Z,30.6671,-87.9365,1.274,7.46,1111122 
DISL,ioos:station:DISL:MHPA:1,2011-01-02T19:00:00Z,30.6671,-87.9365,1.265,7.35,1111122 
DISL,ioos:station:DISL:MHPA:1,2011-01-02T19:30:00Z,30.6671,-87.9365,1.265,7.36,1111122 
DISL,ioos:station:DISL:MHPA:1,2011-01-02T20:00:00Z,30.6671,-87.9365,1.289,7.37,1111122 
DISL,ioos:station:DISL:MHPA:1,2011-01-02T20:30:00Z,30.6671,-87.9365,1.397,7.36,1111122 
DISL,ioos:station:DISL:MHPA:1,2011-01-02T21:00:00Z,30.6671,-87.9365,1.621,7.41,1111122 
DISL,ioos:station:DISL:MHPA:1,2011-01-02T21:30:00Z,30.6671,-87.9365,1.862,7.37,1111122 
DISL,ioos:station:DISL:MHPA:1,2011-01-02T22:00:00Z,30.6671,-87.9365,2.053,7.35,1111122 
DISL,ioos:station:DISL:MHPA:1,2011-01-02T22:30:00Z,30.6671,-87.9365,2.263,7.37,1111122 
DISL,ioos:station:DISL:MHPA:1,2011-01-02T23:00:00Z,30.6671,-87.9365,2.375,7.42,1111122 
DISL,ioos:station:DISL:MHPA:1,2011-01-02T23:30:00Z,30.6671,-87.9365,2.432,7.44,1111122 
DISL,ioos:station:DISL:MHPA:1,2011-01-03T00:00:00Z,30.6671,-87.9365,2.597,7.44,1111122 
DISL,ioos:station:DISL:MHPA:1,2011-01-03T00:30:00Z,30.6671,-87.9365,2.789,7.2,1111122 
DISL,ioos:station:DISL:MHPA:1,2011-01-03T01:00:00Z,30.6671,-87.9365,2.909,7.23,1111122 
DISL,ioos:station:DISL:MHPA:1,2011-01-03T01:30:00Z,30.6671,-87.9365,3.029,7.2,1111122 
DISL,ioos:station:DISL:MHPA:1,2011-01-03T02:00:00Z,30.6671,-87.9365,3.138,7.24,1111122 
DISL,ioos:station:DISL:MHPA:1,2011-01-03T02:30:00Z,30.6671,-87.9365,3.202,7.22,1111122 
DISL,ioos:station:DISL:MHPA:1,2011-01-03T03:00:00Z,30.6671,-87.9365,3.326,7.26,1111122 
DISL,ioos:station:DISL:MHPA:1,2011-01-03T03:30:00Z,30.6671,-87.9365,3.338,7.22,1111122 
DISL,ioos:station:DISL:MHPA:1,2011-01-03T04:00:00Z,30.6671,-87.9365,3.3,7.26,1111122 
DISL,ioos:station:DISL:MHPA:1,2011-01-03T04:30:00Z,30.6671,-87.9365,3.347,7.29,1111122 
DISL,ioos:station:DISL:MHPA:1,2011-01-03T05:00:00Z,30.6671,-87.9365,3.345,7.29,1111122 
DISL,ioos:station:DISL:MHPA:1,2011-01-03T05:30:00Z,30.6671,-87.9365,3.341,7.3,1111122 
DISL,ioos:station:DISL:MHPA:1,2011-01-03T06:00:00Z,30.6671,-87.9365,3.318,7.31,1111122 
DISL,ioos:station:DISL:MHPA:1,2011-01-03T06:30:00Z,30.6671,-87.9365,3.243,7.31,1111122 
DISL,ioos:station:DISL:MHPA:1,2011-01-03T07:00:00Z,30.6671,-87.9365,3.13,7.31,1111122 
DISL,ioos:station:DISL:MHPA:1,2011-01-03T07:30:00Z,30.6671,-87.9365,3.006,7.3,1111122 
DISL,ioos:station:DISL:MHPA:1,2011-01-03T08:00:00Z,30.6671,-87.9365,2.888,7.32,1111122 
DISL,ioos:station:DISL:MHPA:1,2011-01-03T08:30:00Z,30.6671,-87.9365,2.754,7.34,1111122 
DISL,ioos:station:DISL:MHPA:1,2011-01-03T09:00:00Z,30.6671,-87.9365,2.603,7.35,1111122 
DISL,ioos:station:DISL:MHPA:1,2011-01-03T09:30:00Z,30.6671,-87.9365,2.451,7.33,1111122 
DISL,ioos:station:DISL:MHPA:1,2011-01-03T10:00:00Z,30.6671,-87.9365,2.31,7.28,1111122 
DISL,ioos:station:DISL:MHPA:1,2011-01-03T10:30:00Z,30.6671,-87.9365,2.211,7.14,1111122 
DISL,ioos:station:DISL:MHPA:1,2011-01-03T11:00:00Z,30.6671,-87.9365,2.115,7.16,1111122 
DISL,ioos:station:DISL:MHPA:1,2011-01-03T11:30:00Z,30.6671,-87.9365,2.018,7.23,1111122 
DISL,ioos:station:DISL:MHPA:1,2011-01-03T12:00:00Z,30.6671,-87.9365,1.941,7.18,1111122 
DISL,ioos:station:DISL:MHPA:1,2011-01-03T12:30:00Z,30.6671,-87.9365,1.87,7.21,1111122 
DISL,ioos:station:DISL:MHPA:1,2011-01-03T13:00:00Z,30.6671,-87.9365,1.801,7.06,1111122 
DISL,ioos:station:DISL:MHPA:1,2011-01-03T13:30:00Z,30.6671,-87.9365,1.726,7.13,1111122 
DISL,ioos:station:DISL:MHPA:1,2011-01-03T14:00:00Z,30.6671,-87.9365,1.643,7.31,1111122 
DISL,ioos:station:DISL:MHPA:1,2011-01-03T14:30:00Z,30.6671,-87.9365,1.569,7.31,1111122 
DISL,ioos:station:DISL:MHPA:1,2011-01-03T15:00:00Z,30.6671,-87.9365,1.514,7.37,1111122 
DISL,ioos:station:DISL:MHPA:1,2011-01-03T15:30:00Z,30.6671,-87.9365,1.476,7.38,1111122 
DISL,ioos:station:DISL:MHPA:1,2011-01-03T16:00:00Z,30.6671,-87.9365,1.444,7.11,1111122 
DISL,ioos:station:DISL:MHPA:1,2011-01-03T16:30:00Z,30.6671,-87.9365,1.418,7.32,1111122 
DISL,ioos:station:DISL:MHPA:1,2011-01-03T17:00:00Z,30.6671,-87.9365,1.402,7.35,1111122 
DISL,ioos:station:DISL:MHPA:1,2011-01-03T17:30:00Z,30.6671,-87.9365,1.384,7.24,1111122 
DISL,ioos:station:DISL:MHPA:1,2011-01-03T18:00:00Z,30.6671,-87.9365,1.377,7.44,1111122 
DISL,ioos:station:DISL:MHPA:1,2011-01-03T18:30:00Z,30.6671,-87.9365,1.403,7.13,1111122 
DISL,ioos:station:DISL:MHPA:1,2011-01-03T19:00:00Z,30.6671,-87.9365,1.501,6.88,1111122 
DISL,ioos:station:DISL:MHPA:1,2011-01-03T19:30:00Z,30.6671,-87.9365,1.735,7.06,1111122 
DISL,ioos:station:DISL:MHPA:1,2011-01-03T20:00:00Z,30.6671,-87.9365,2.013,6.11,1111122 
DISL,ioos:station:DISL:MHPA:1,2011-01-03T20:30:00Z,30.6671,-87.9365,2.217,5.88,1111122 
DISL,ioos:station:DISL:MHPA:1,2011-01-03T21:00:00Z,30.6671,-87.9365,2.375,5.93,1111122 
DISL,ioos:station:DISL:MHPA:1,2011-01-03T21:30:00Z,30.6671,-87.9365,2.537,5.87,1111122 
DISL,ioos:station:DISL:MHPA:1,2011-01-03T22:00:00Z,30.6671,-87.9365,2.659,6.4,1111122 
DISL,ioos:station:DISL:MHPA:1,2011-01-03T22:30:00Z,30.6671,-87.9365,2.808,6.09,1111122 
DISL,ioos:station:DISL:MHPA:1,2011-01-03T23:00:00Z,30.6671,-87.9365,2.987,6.3,1111122 
DISL,ioos:station:DISL:MHPA:1,2011-01-03T23:30:00Z,30.6671,-87.9365,3.122,6.98,1111122 
DISL,ioos:station:DISL:MHPA:1,2011-01-04T00:00:00Z,30.6671,-87.9365,3.248,7.04,1111122 
DISL,ioos:station:DISL:MHPA:1,2011-01-04T00:30:00Z,30.6671,-87.9365,3.408,6.81,1111122 
DISL,ioos:station:DISL:MHPA:1,2011-01-04T01:00:00Z,30.6671,-87.9365,3.558,6.6,1111122 
DISL,ioos:station:DISL:MHPA:1,2011-01-04T01:30:00Z,30.6671,-87.9365,3.645,6.69,1111122 
DISL,ioos:station:DISL:MHPA:1,2011-01-04T02:00:00Z,30.6671,-87.9365,3.781,6.76,1111122 
DISL,ioos:station:DISL:MHPA:1,2011-01-04T02:30:00Z,30.6671,-87.9365,3.894,6.53,1111122 
DISL,ioos:station:DISL:MHPA:1,2011-01-04T03:00:00Z,30.6671,-87.9365,4.01,6.62,1111122 
DISL,ioos:station:DISL:MHPA:1,2011-01-04T03:30:00Z,30.6671,-87.9365,4.123,6.63,1111122 
DISL,ioos:station:DISL:MHPA:1,2011-01-04T04:00:00Z,30.6671,-87.9365,4.152,6.43,1111122 
DISL,ioos:station:DISL:MHPA:1,2011-01-04T04:30:00Z,30.6671,-87.9365,4.185,6.5,1111122 
DISL,ioos:station:DISL:MHPA:1,2011-01-04T05:00:00Z,30.6671,-87.9365,4.275,6.55,1111122 
DISL,ioos:station:DISL:MHPA:1,2011-01-04T05:30:00Z,30.6671,-87.9365,4.224,6.78,1111122 
DISL,ioos:station:DISL:MHPA:1,2011-01-04T06:00:00Z,30.6671,-87.9365,4.147,6.91,1111122 
DISL,ioos:station:DISL:MHPA:1,2011-01-04T06:30:00Z,30.6671,-87.9365,4.095,6.43,1111122 
DISL,ioos:station:DISL:MHPA:1,2011-01-04T07:00:00Z,30.6671,-87.9365,3.993,6.73,1111122 
DISL,ioos:station:DISL:MHPA:1,2011-01-04T07:30:00Z,30.6671,-87.9365,3.802,6.54,1111122 
DISL,ioos:station:DISL:MHPA:1,2011-01-04T08:00:00Z,30.6671,-87.9365,3.69,6.72,1111122 
DISL,ioos:station:DISL:MHPA:1,2011-01-04T08:30:00Z,30.6671,-87.9365,3.521,6.33,1111122 
DISL,ioos:station:DISL:MHPA:1,2011-01-04T09:00:00Z,30.6671,-87.9365,3.355,6.54,1111122 
DISL,ioos:station:DISL:MHPA:1,2011-01-04T09:30:00Z,30.6671,-87.9365,3.199,6.56,1111122 
DISL,ioos:station:DISL:MHPA:1,2011-01-04T10:00:00Z,30.6671,-87.9365,3.076,6.39,1111122 
DISL,ioos:station:DISL:MHPA:1,2011-01-04T10:30:00Z,30.6671,-87.9365,2.938,6.41,1111122 
DISL,ioos:station:DISL:MHPA:1,2011-01-04T11:00:00Z,30.6671,-87.9365,2.819,6.87,1111122 
DISL,ioos:station:DISL:MHPA:1,2011-01-04T11:30:00Z,30.6671,-87.9365,2.716,6.81,1111122 
DISL,ioos:station:DISL:MHPA:1,2011-01-04T12:00:00Z,30.6671,-87.9365,2.601,6.61,1111122 
DISL,ioos:station:DISL:MHPA:1,2011-01-04T12:30:00Z,30.6671,-87.9365,2.504,6.42,1111122 
DISL,ioos:station:DISL:MHPA:1,2011-01-04T13:00:00Z,30.6671,-87.9365,2.427,6.43,1111122 
DISL,ioos:station:DISL:MHPA:1,2011-01-04T13:30:00Z,30.6671,-87.9365,2.339,6.5,1111122 
DISL,ioos:station:DISL:MHPA:1,2011-01-04T14:00:00Z,30.6671,-87.9365,2.247,6.3,1111122 
DISL,ioos:station:DISL:MHPA:1,2011-01-04T14:30:00Z,30.6671,-87.9365,2.174,6.47,1111122 
DISL,ioos:station:DISL:MHPA:1,2011-01-04T15:00:00Z,30.6671,-87.9365,2.112,6.59,1111122 
DISL,ioos:station:DISL:MHPA:1,2011-01-04T15:30:00Z,30.6671,-87.9365,2.046,5.85,1111122 
DISL,ioos:station:DISL:MHPA:1,2011-01-04T16:00:00Z,30.6671,-87.9365,1.988,6.22,1111122 
DISL,ioos:station:DISL:MHPA:1,2011-01-04T16:30:00Z,30.6671,-87.9365,1.962,6.3,1111122 
DISL,ioos:station:DISL:MHPA:1,2011-01-04T17:00:00Z,30.6671,-87.9365,1.943,6.14,1111122 
DISL,ioos:station:DISL:MHPA:1,2011-01-04T17:30:00Z,30.6671,-87.9365,1.954,5.58,1111122 
DISL,ioos:station:DISL:MHPA:1,2011-01-04T18:00:00Z,30.6671,-87.9365,1.979,5.87,1111122 
DISL,ioos:station:DISL:MHPA:1,2011-01-04T18:30:00Z,30.6671,-87.9365,1.984,5.4,1111122 
DISL,ioos:station:DISL:MHPA:1,2011-01-04T19:00:00Z,30.6671,-87.9365,2.04,5.72,1111122 
DISL,ioos:station:DISL:MHPA:1,2011-01-04T19:30:00Z,30.6671,-87.9365,2.157,5.85,1111122 
DISL,ioos:station:DISL:MHPA:1,2011-01-04T20:00:00Z,30.6671,-87.9365,2.289,6.2,1111122 
DISL,ioos:station:DISL:MHPA:1,2011-01-04T20:30:00Z,30.6671,-87.9365,2.432,6.41,1111122 
DISL,ioos:station:DISL:MHPA:1,2011-01-04T21:00:00Z,30.6671,-87.9365,2.563,5.94,1111122 
DISL,ioos:station:DISL:MHPA:1,2011-01-04T21:30:00Z,30.6671,-87.9365,2.701,6.18,1111122 
DISL,ioos:station:DISL:MHPA:1,2011-01-04T22:00:00Z,30.6671,-87.9365,2.843,6.55,1111122 
DISL,ioos:station:DISL:MHPA:1,2011-01-04T22:30:00Z,30.6671,-87.9365,3.006,5.87,1111122 
DISL,ioos:station:DISL:MHPA:1,2011-01-04T23:00:00Z,30.6671,-87.9365,3.077,5.53,1111122 
DISL,ioos:station:DISL:MHPA:1,2011-01-04T23:30:00Z,30.6671,-87.9365,3.13,5.1,1111122 
DISL,ioos:station:DISL:MHPA:1,2011-01-05T00:00:00Z,30.6671,-87.9365,3.24,5.63,1111122 
DISL,ioos:station:DISL:MHPA:1,2011-01-05T00:30:00Z,30.6671,-87.9365,3.351,5.66,1111122 
DISL,ioos:station:DISL:MHPA:1,2011-01-05T01:00:00Z,30.6671,-87.9365,3.401,6.28,1111122 
DISL,ioos:station:DISL:MHPA:1,2011-01-05T01:30:00Z,30.6671,-87.9365,3.507,6.14,1111122 
DISL,ioos:station:DISL:MHPA:1,2011-01-05T02:00:00Z,30.6671,-87.9365,3.65,5.58,1111122 
DISL,ioos:station:DISL:MHPA:1,2011-01-05T02:30:00Z,30.6671,-87.9365,3.757,6.28,1111122 
DISL,ioos:station:DISL:MHPA:1,2011-01-05T03:00:00Z,30.6671,-87.9365,3.832,5.97,1111122 
DISL,ioos:station:DISL:MHPA:1,2011-01-05T03:30:00Z,30.6671,-87.9365,3.947,6.53,1111122 
DISL,ioos:station:DISL:MHPA:1,2011-01-05T04:00:00Z,30.6671,-87.9365,4.026,6.19,1111122 
DISL,ioos:station:DISL:MHPA:1,2011-01-05T04:30:00Z,30.6671,-87.9365,4.075,6.67,1111122 
DISL,ioos:station:DISL:MHPA:1,2011-01-05T05:00:00Z,30.6671,-87.9365,4.121,6.2,1111122 
DISL,ioos:station:DISL:MHPA:1,2011-01-05T05:30:00Z,30.6671,-87.9365,4.146,6.23,1111122 
DISL,ioos:station:DISL:MHPA:1,2011-01-05T06:00:00Z,30.6671,-87.9365,4.1,6.02,1111122 
DISL,ioos:station:DISL:MHPA:1,2011-01-05T06:30:00Z,30.6671,-87.9365,4.054,5.65,1111122 
DISL,ioos:station:DISL:MHPA:1,2011-01-05T07:00:00Z,30.6671,-87.9365,3.998,6.2,1111122 
DISL,ioos:station:DISL:MHPA:1,2011-01-05T07:30:00Z,30.6671,-87.9365,3.873,6.62,1111122 
DISL,ioos:station:DISL:MHPA:1,2011-01-05T08:00:00Z,30.6671,-87.9365,3.732,6.75,1111122 
DISL,ioos:station:DISL:MHPA:1,2011-01-05T08:30:00Z,30.6671,-87.9365,3.595,6.69,1111122 
DISL,ioos:station:DISL:MHPA:1,2011-01-05T09:00:00Z,30.6671,-87.9365,3.46,6.56,1111122 
DISL,ioos:station:DISL:MHPA:1,2011-01-05T09:30:00Z,30.6671,-87.9365,3.324,5.8,1111122 
DISL,ioos:station:DISL:MHPA:1,2011-01-05T10:00:00Z,30.6671,-87.9365,3.229,6.16,1111122 
DISL,ioos:station:DISL:MHPA:1,2011-01-05T10:30:00Z,30.6671,-87.9365,3.126,6.14,1111122 
DISL,ioos:station:DISL:MHPA:1,2011-01-05T11:00:00Z,30.6671,-87.9365,3.009,6.22,1111122 
DISL,ioos:station:DISL:MHPA:1,2011-01-05T11:30:00Z,30.6671,-87.9365,2.902,6.35,1111122 
DISL,ioos:station:DISL:MHPA:1,2011-01-05T12:00:00Z,30.6671,-87.9365,2.797,5.98,1111122 
DISL,ioos:station:DISL:MHPA:1,2011-01-05T12:30:00Z,30.6671,-87.9365,2.683,5.63,1111122 
DISL,ioos:station:DISL:MHPA:1,2011-01-05T13:00:00Z,30.6671,-87.9365,2.6,6.72,1111122 
DISL,ioos:station:DISL:MHPA:1,2011-01-05T13:30:00Z,30.6671,-87.9365,2.529,6.61,1111122 
DISL,ioos:station:DISL:MHPA:1,2011-01-05T14:00:00Z,30.6671,-87.9365,2.463,1.55,1111122 
DISL,ioos:station:DISL:MHPA:1,2011-01-05T14:30:00Z,30.6671,-87.9365,2.421,1.51,1111122 
DISL,ioos:station:DISL:MHPA:1,2011-01-05T15:00:00Z,30.6671,-87.9365,2.39,4.84,1111122 
DISL,ioos:station:DISL:MHPA:1,2011-01-05T15:30:00Z,30.6671,-87.9365,2.382,2.21,1111122 
DISL,ioos:station:DISL:MHPA:1,2011-01-05T16:00:00Z,30.6671,-87.9365,2.273,1.24,1111122 
DISL,ioos:station:DISL:MHPA:1,2011-01-05T16:30:00Z,30.6671,-87.9365,2.214,3.74,1111122 
DISL,ioos:station:DISL:MHPA:1,2011-01-05T17:00:00Z,30.6671,-87.9365,2.2,1.05,1111122 
DISL,ioos:station:DISL:MHPA:1,2011-01-05T17:30:00Z,30.6671,-87.9365,2.326,1.15,1111122 
DISL,ioos:station:DISL:MHPA:1,2011-01-05T18:00:00Z,30.6671,-87.9365,2.55,0.85,1111122 
DISL,ioos:station:DISL:MHPA:1,2011-01-05T18:30:00Z,30.6671,-87.9365,2.562,1.13,1111122 
DISL,ioos:station:DISL:MHPA:1,2011-01-05T19:00:00Z,30.6671,-87.9365,2.564,0.92,1111122 
DISL,ioos:station:DISL:MHPA:1,2011-01-05T19:30:00Z,30.6671,-87.9365,2.513,0.94,1111122 
DISL,ioos:station:DISL:MHPA:1,2011-01-05T20:00:00Z,30.6671,-87.9365,2.471,1.23,1111122 
DISL,ioos:station:DISL:MHPA:1,2011-01-05T20:30:00Z,30.6671,-87.9365,2.493,1.22,1111122 
DISL,ioos:station:DISL:MHPA:1,2011-01-05T21:00:00Z,30.6671,-87.9365,2.588,1.17,1111122 
DISL,ioos:station:DISL:MHPA:1,2011-01-05T21:30:00Z,30.6671,-87.9365,2.865,1.08,1111122 
DISL,ioos:station:DISL:MHPA:1,2011-01-05T22:00:00Z,30.6671,-87.9365,3.021,0.97,1111122 
DISL,ioos:station:DISL:MHPA:1,2011-01-05T22:30:00Z,30.6671,-87.9365,3.148,1.0,1111122 
DISL,ioos:station:DISL:MHPA:1,2011-01-05T23:00:00Z,30.6671,-87.9365,3.293,0.88,1111122 
DISL,ioos:station:DISL:MHPA:1,2011-01-05T23:30:00Z,30.6671,-87.9365,3.415,0.91,1111122 
DISL,ioos:station:DISL:MHPA:1,2011-01-06T00:00:00Z,30.6671,-87.9365,3.481,0.88,1111122 
DISL,ioos:station:DISL:MHPA:1,2011-01-06T00:30:00Z,30.6671,-87.9365,3.54,2.68,1111122 
DISL,ioos:station:DISL:MHPA:1,2011-01-06T01:00:00Z,30.6671,-87.9365,3.637,2.49,1111122 
DISL,ioos:station:DISL:MHPA:1,2011-01-06T01:30:00Z,30.6671,-87.9365,3.611,2.81,1111122 
DISL,ioos:station:DISL:MHPA:1,2011-01-06T02:00:00Z,30.6671,-87.9365,3.734,1.62,1111122 
DISL,ioos:station:DISL:MHPA:1,2011-01-06T02:30:00Z,30.6671,-87.9365,3.912,3.48,1111122 
DISL,ioos:station:DISL:MHPA:1,2011-01-06T03:00:00Z,30.6671,-87.9365,3.866,2.24,1111122 
DISL,ioos:station:DISL:MHPA:1,2011-01-06T03:30:00Z,30.6671,-87.9365,4.01,2.07,1111122 
DISL,ioos:station:DISL:MHPA:1,2011-01-06T04:00:00Z,30.6671,-87.9365,4.15,1.66,1111122 
DISL,ioos:station:DISL:MHPA:1,2011-01-06T04:30:00Z,30.6671,-87.9365,4.258,2.42,1111122 
DISL,ioos:station:DISL:MHPA:1,2011-01-06T05:00:00Z,30.6671,-87.9365,4.292,2.14,1111122 
DISL,ioos:station:DISL:MHPA:1,2011-01-06T05:30:00Z,30.6671,-87.9365,4.241,1.96,1111122 
DISL,ioos:station:DISL:MHPA:1,2011-01-06T06:00:00Z,30.6671,-87.9365,4.272,2.7,1111122 
DISL,ioos:station:DISL:MHPA:1,2011-01-06T06:30:00Z,30.6671,-87.9365,4.175,4.51,1111122 
DISL,ioos:station:DISL:MHPA:1,2011-01-06T07:00:00Z,30.6671,-87.9365,4.068,2.18,1111122 
DISL,ioos:station:DISL:MHPA:1,2011-01-06T07:30:00Z,30.6671,-87.9365,3.871,2.32,1111122 
DISL,ioos:station:DISL:MHPA:1,2011-01-06T08:00:00Z,30.6671,-87.9365,3.745,2.28,1111122 
DISL,ioos:station:DISL:MHPA:1,2011-01-06T08:30:00Z,30.6671,-87.9365,3.6,2.31,1111122 
DISL,ioos:station:DISL:MHPA:1,2011-01-06T09:00:00Z,30.6671,-87.9365,3.457,0.71,1111122 
DISL,ioos:station:DISL:MHPA:1,2011-01-06T09:30:00Z,30.6671,-87.9365,3.322,0.64,1111122 
DISL,ioos:station:DISL:MHPA:1,2011-01-06T10:00:00Z,30.6671,-87.9365,3.2,2.48,1111122 
DISL,ioos:station:DISL:MHPA:1,2011-01-06T10:30:00Z,30.6671,-87.9365,3.15,1.94,1111122 
DISL,ioos:station:DISL:MHPA:1,2011-01-06T11:00:00Z,30.6671,-87.9365,3.042,1.72,1111122 
DISL,ioos:station:DISL:MHPA:1,2011-01-06T11:30:00Z,30.6671,-87.9365,2.949,1.18,1111122 
DISL,ioos:station:DISL:MHPA:1,2011-01-06T12:00:00Z,30.6671,-87.9365,2.813,1.51,1111122 
DISL,ioos:station:DISL:MHPA:1,2011-01-06T12:30:00Z,30.6671,-87.9365,2.705,1.23,1111122 
DISL,ioos:station:DISL:MHPA:1,2011-01-06T13:00:00Z,30.6671,-87.9365,2.598,0.48,1111122 
DISL,ioos:station:DISL:MHPA:1,2011-01-06T13:30:00Z,30.6671,-87.9365,2.509,1.55,1111122 
DISL,ioos:station:DISL:MHPA:1,2011-01-06T14:00:00Z,30.6671,-87.9365,2.43,0.99,1111122 
DISL,ioos:station:DISL:MHPA:1,2011-01-06T14:30:00Z,30.6671,-87.9365,2.359,1.47,1111122 
DISL,ioos:station:DISL:MHPA:1,2011-01-06T15:00:00Z,30.6671,-87.9365,2.296,2.26,1111122 
DISL,ioos:station:DISL:MHPA:1,2011-01-06T15:30:00Z,30.6671,-87.9365,2.256,1.17,1111122 
DISL,ioos:station:DISL:MHPA:1,2011-01-06T16:00:00Z,30.6671,-87.9365,2.261,0.32,1111122 
DISL,ioos:station:DISL:MHPA:1,2011-01-06T16:30:00Z,30.6671,-87.9365,2.249,2.17,1111122 